H1 CPF 2 NER 2022 7 29 9 210 01 glonass138 H2 1805301 9138 43508 2022 7 29 0 0 0 2022 8 1 23 45 0 900 1 1 0 0 0 1 H9 10 0 59789 0.00000 0 -20940621.643 7691304.650 -12380763.664 10 0 59789 900.00000 0 -22266578.877 8005840.328 -9547544.439 10 0 59789 1800.00000 0 -23212407.478 8348541.074 -6529013.263 10 0 59789 2700.00000 0 -23763856.588 8663346.488 -3383778.649 10 0 59789 3600.00000 0 -23920048.891 8893624.607 -172886.472 10 0 59789 4500.00000 0 -23693392.645 8984779.662 3041363.763 10 0 59789 5400.00000 0 -23108955.444 8886781.404 6196625.633 10 0 59789 6300.00000 0 -22203326.860 8556508.964 9231712.117 10 0 59789 7200.00000 0 -21023018.380 7959810.167 12087778.071 10 0 59789 8100.00000 0 -19622468.252 7073189.181 14709456.192 10 0 59789 9000.00000 0 -18061735.173 5885051.001 17045924.788 10 0 59789 9900.00000 0 -16403977.452 4396449.896 19051887.100 10 0 59789 10800.00000 0 -14712822.972 2621309.529 20688443.848 10 0 59789 11700.00000 0 -13049739.498 586104.447 21923842.789 10 0 59789 12600.00000 0 -11471514.695 -1670985.055 22734091.358 10 0 59789 13500.00000 0 -10027950.384 -4101410.979 23103421.129 10 0 59789 14400.00000 0 -8759866.595 -6648034.547 23024595.409 10 0 59789 15300.00000 0 -7697498.142 -9247269.714 22499054.096 10 0 59789 16200.00000 0 -6859350.116 -11831505.874 21536892.760 10 0 59789 17100.00000 0 -6251559.744 -14331710.610 20156675.787 10 0 59789 18000.00000 0 -5867791.171 -16680105.470 18385086.430 10 0 59789 18900.00000 0 -5689667.503 -18812804.486 16256419.533 10 0 59789 19800.00000 0 -5687722.065 -20672306.174 13811925.654 10 0 59789 20700.00000 0 -5822829.039 -22209735.251 11099018.327 10 0 59789 21600.00000 0 -6048053.292 -23386740.447 8170358.949 10 0 59789 22500.00000 0 -6310841.288 -24176968.666 5082836.427 10 0 59789 23400.00000 0 -6555460.283 -24567053.152 1896461.233 10 0 59789 24300.00000 0 -6725582.039 -24557073.779 -1326804.573 10 0 59789 25200.00000 0 -6766900.868 -24160469.668 -4524258.150 10 0 59789 26100.00000 0 -6629673.991 -23403407.458 -7633683.117 10 0 59789 27000.00000 0 -6271075.354 -22323631.993 -10594568.445 10 0 59789 27900.00000 0 -5657261.734 -20968847.861 -13349294.278 10 0 59789 28800.00000 0 -4765062.266 -19394700.440 -15844260.503 10 0 59789 29700.00000 0 -3583218.579 -17662442.177 -18030935.439 10 0 59789 30600.00000 0 -2113121.855 -15836382.834 -19866803.638 10 0 59789 31500.00000 0 -369014.690 -13981231.617 -21316194.064 10 0 59789 32400.00000 0 1622351.716 -12159443.203 -22350972.622 10 0 59789 33300.00000 0 3822591.472 -10428679.180 -22951085.850 10 0 59789 34200.00000 0 6183052.970 -8839491.249 -23104945.673 10 0 59789 35100.00000 0 8646626.184 -7433322.703 -22809648.376 10 0 59789 36000.00000 0 11149913.294 -6240911.035 -22071024.143 10 0 59789 36900.00000 0 13625672.388 -5281157.431 -20903516.812 10 0 59789 37800.00000 0 16005432.813 -4560509.080 -19329896.636 10 0 59789 38700.00000 0 18222173.621 -4072878.656 -17380812.000 10 0 59789 39600.00000 0 20212953.906 -3800102.747 -15094189.037 10 0 59789 40500.00000 0 21921385.945 -3712918.457 -12514490.955 10 0 59789 41400.00000 0 23299848.605 -3772415.637 -9691851.466 10 0 59789 42300.00000 0 24311349.244 -3931902.411 -6681099.270 10 0 59789 43200.00000 0 24930957.090 -4139104.304 -3540692.519 10 0 59789 44100.00000 0 25146748.932 -4338603.387 -331584.007 10 0 59789 45000.00000 0 24960228.314 -4474413.870 2883960.775 10 0 59789 45900.00000 0 24386201.482 -4492584.929 6043569.723 10 0 59789 46800.00000 0 23452115.965 -4343720.534 9085970.966 10 0 59789 47700.00000 0 22196890.116 -3985309.661 11952177.042 10 0 59789 48600.00000 0 20669283.052 -3383768.339 14586623.665 10 0 59789 49500.00000 0 18925873.469 -2516107.123 16938241.381 10 0 59789 50400.00000 0 17028731.927 -1371153.401 18961439.735 10 0 59789 51300.00000 0 15042883.661 49723.517 20616985.519 10 0 59789 52200.00000 0 13033667.415 1732415.899 21872758.794 10 0 59789 53100.00000 0 11064099.932 3650418.993 22704372.598 10 0 59789 54000.00000 0 9192355.180 5765697.561 23095644.956 10 0 59789 54900.00000 0 7469462.556 8030042.959 23038914.380 10 0 59789 55800.00000 0 5937319.189 10386865.901 22535192.826 10 0 59789 56700.00000 0 4627098.427 12773351.978 21594152.962 10 0 59789 57600.00000 0 3558120.259 15122891.854 20233949.425 10 0 59789 58500.00000 0 2737230.383 17367686.317 18480876.774 10 0 59789 59400.00000 0 2158713.570 19441418.805 16368869.755 10 0 59789 60300.00000 0 1804744.732 21281884.748 13938854.464 10 0 59789 61200.00000 0 1646358.715 22833468.260 11237962.008 10 0 59789 62100.00000 0 1644897.872 24049362.606 8318618.994 10 0 59789 63000.00000 0 1753876.259 24893441.166 5237531.879 10 0 59789 63900.00000 0 1921181.453 25341699.760 2054584.725 10 0 59789 64800.00000 0 2091520.337 25383209.106 -1168328.185 10 0 59789 65700.00000 0 2209004.567 25020536.618 -4368511.707 10 0 59789 66600.00000 0 2219765.196 24269619.285 -7483696.842 10 0 59789 67500.00000 0 2074484.479 23159092.569 -10453260.622 10 0 59789 68400.00000 0 1730736.232 21729103.332 -13219414.090 10 0 59789 69300.00000 0 1155034.279 20029657.059 -15728334.263 10 0 59789 70200.00000 0 324500.925 18118569.034 -17931217.227 10 0 59789 71100.00000 0 -771916.356 16059106.151 -19785231.347 10 0 59789 72000.00000 0 -2132732.383 13917419.025 -21254351.754 10 0 59789 72900.00000 0 -3743746.909 11759872.350 -22310059.866 10 0 59789 73800.00000 0 -5578410.721 9650385.598 -22931894.653 10 0 59789 74700.00000 0 -7598720.404 7647895.384 -23107845.374 10 0 59789 75600.00000 0 -9756604.807 5804045.184 -22834578.776 10 0 59789 76500.00000 0 -11995745.655 4161198.196 -22117496.984 10 0 59789 77400.00000 0 -14253756.499 2750855.382 -20970625.529 10 0 59789 78300.00000 0 -16464629.378 1592543.335 -19416334.195 10 0 59789 79200.00000 0 -18561347.406 693216.924 -17484896.478 10 0 59789 80100.00000 0 -20478554.553 47199.969 -15213896.448 10 0 59789 81000.00000 0 -22155171.552 -363335.326 -12647494.692 10 0 59789 81900.00000 0 -23536849.138 -567372.047 -9835567.607 10 0 59789 82800.00000 0 -24578156.472 -603578.756 -6832736.844 10 0 59789 83700.00000 0 -25244413.786 -518429.435 -3697307.775 10 0 59789 84600.00000 0 -25513093.055 -363993.565 -490137.585 10 0 59789 85500.00000 0 -25374728.567 -195490.418 2726544.854 10 0 59790 0.00000 0 -24833299.855 -68711.469 5890344.158 10 0 59790 900.00000 0 -23906071.050 -37420.193 8939906.916 10 0 59790 1800.00000 0 -22622894.607 -150839.440 11816105.814 10 0 59790 2700.00000 0 -21025007.853 -451332.470 14463182.316 10 0 59790 3600.00000 0 -19163373.453 -972375.818 16829821.827 10 0 59790 4500.00000 0 -17096632.876 -1736909.591 18870142.621 10 0 59790 5400.00000 0 -14888758.072 -2756135.045 20544579.726 10 0 59790 6300.00000 0 -12606498.769 -4028810.640 21820647.327 10 0 59790 7200.00000 0 -10316731.135 -5541076.957 22673565.500 10 0 59790 8100.00000 0 -8083817.347 -7266819.029 23086739.749 10 0 59790 9000.00000 0 -5967084.971 -9168552.377 23052084.410 10 0 59790 9900.00000 0 -4018530.151 -11198797.290 22570183.731 10 0 59790 10800.00000 0 -2280839.223 -13301885.736 21650287.341 10 0 59790 11700.00000 0 -785810.301 -15416127.196 20310139.645 10 0 59790 12600.00000 0 446759.966 -17476244.539 18575645.691 10 0 59790 13500.00000 0 1409678.590 -19415979.564 16480378.983 10 0 59790 14400.00000 0 2108422.558 -21170760.316 14064939.698 10 0 59790 15300.00000 0 2560666.761 -22680319.086 11376174.736 10 0 59790 16200.00000 0 2795293.608 -23891151.624 8466273.854 10 0 59790 17100.00000 0 2850926.291 -24758714.148 5391758.753 10 0 59790 18000.00000 0 2774047.875 -25249265.293 2212384.558 10 0 59790 18900.00000 0 2616786.224 -25341274.726 -1010024.921 10 0 59790 19800.00000 0 2434459.189 -25026338.267 -4212785.082 10 0 59790 20700.00000 0 2282984.911 -24309560.119 -7333577.270 10 0 59790 21600.00000 0 2216268.089 -23209385.353 -10311669.594 10 0 59790 22500.00000 0 2283674.193 -21756889.200 -13089107.081 10 0 59790 23400.00000 0 2527699.902 -19994552.773 -15611846.894 10 0 59790 24300.00000 0 2981939.701 -17974576.670 -17830815.792 10 0 59790 25200.00000 0 3669435.801 -15756803.621 -19702868.679 10 0 59790 26100.00000 0 4601482.139 -13406337.576 -21191629.256 10 0 59790 27000.00000 0 5776933.765 -10990959.370 -22268196.460 10 0 59790 27900.00000 0 7182051.428 -8578447.290 -22911703.246 10 0 59790 28800.00000 0 8790888.419 -6233914.546 -23109717.270 10 0 59790 29700.00000 0 10566203.884 -4017274.561 -22858476.330 10 0 59790 30600.00000 0 12460864.666 -1980939.186 -22162954.593 10 0 59790 31500.00000 0 14419677.171 -167845.002 -21036758.938 10 0 59790 32400.00000 0 16381572.895 1390111.280 -19501857.916 10 0 59790 33300.00000 0 18282056.422 2673164.581 -17588148.938 10 0 59790 34200.00000 0 20055813.701 3674256.420 -15332872.401 10 0 59790 35100.00000 0 21639371.810 4399070.951 -12779884.232 10 0 59790 36000.00000 0 22973699.189 4865532.400 -9978801.039 10 0 59790 36900.00000 0 24006637.775 5102786.742 -6984034.565 10 0 59790 37800.00000 0 24695065.505 5149712.063 -3853734.190 10 0 59790 38700.00000 0 25006698.918 5053021.688 -648658.051 10 0 59790 39600.00000 0 24921460.588 4865041.146 2569005.188 10 0 59790 40500.00000 0 24432354.389 4641253.602 5736841.004 10 0 59790 41400.00000 0 23545812.143 4437717.990 8793416.767 10 0 59790 42300.00000 0 22281497.301 4308469.172 11679469.130 10 0 59790 43200.00000 0 20671573.969 4303010.131 14339048.239 10 0 59790 44100.00000 0 18759471.747 4464002.085 16720596.934 10 0 59790 45000.00000 0 16598197.816 4825250.008 18777944.421 10 0 59790 45900.00000 0 14248266.280 5410068.557 20471195.772 10 0 59790 46800.00000 0 11775330.450 6230097.504 21767500.714 10 0 59790 47700.00000 0 9247615.935 7284616.966 22641687.384 10 0 59790 48600.00000 0 6733260.337 8560391.992 23076749.390 10 0 59790 49500.00000 0 4297669.109 10032054.178 23064177.105 10 0 59790 50400.00000 0 2000996.415 11663005.625 22604126.848 10 0 59790 51300.00000 0 -104145.351 13406808.999 21705424.559 10 0 59790 52200.00000 0 -1974653.161 15209007.156 20385403.334 10 0 59790 53100.00000 0 -3578496.897 17009297.776 18669577.224 10 0 59790 54000.00000 0 -4895814.393 18743973.404 16591156.658 10 0 59790 54900.00000 0 -5919492.759 20348525.872 14190413.754 10 0 59790 55800.00000 0 -6655212.015 21760306.615 11513908.839 10 0 59790 56700.00000 0 -7120949.550 22921131.590 8613592.271 10 0 59790 57600.00000 0 -7345966.523 23779721.236 5545798.309 10 0 59790 58500.00000 0 -7369319.273 24293872.314 2370150.367 10 0 59790 59400.00000 0 -7237958.998 24432269.341 -851601.035 10 0 59790 60300.00000 0 -7004500.768 24175858.333 -4056784.654 10 0 59790 61200.00000 0 -6724757.065 23518723.881 -7183034.957 10 0 59790 62100.00000 0 -6455141.313 22468431.518 -10169513.814 10 0 59790 63000.00000 0 -6250052.566 21045820.168 -12958102.746 10 0 59790 63900.00000 0 -6159353.267 19284252.665 -15494541.369 10 0 59790 64800.00000 0 -6226048.134 17228355.597 -17729489.187 10 0 59790 65700.00000 0 -6484263.437 14932301.235 -19619489.453 10 0 59790 66600.00000 0 -6957612.995 12457703.722 -21127815.998 10 0 59790 67500.00000 0 -7658020.652 9871217.774 -22225186.603 10 0 59790 68400.00000 0 -8585049.417 7241940.333 -22890329.266 10 0 59790 69300.00000 0 -9725765.931 4638723.805 -23110390.817 10 0 59790 70200.00000 0 -11055146.172 2127512.706 -22881180.548 10 0 59790 71100.00000 0 -12537005.590 -231185.785 -22207244.760 10 0 59790 72000.00000 0 -14125414.646 -2384592.682 -21101771.372 10 0 59790 72900.00000 0 -15766540.523 -4289615.203 -19586326.961 10 0 59790 73800.00000 0 -17400837.907 -5914391.720 -17690431.713 10 0 59790 74700.00000 0 -18965497.053 -7239360.784 -15450980.817 10 0 59790 75600.00000 0 -20397046.740 -8257811.411 -12911523.682 10 0 59790 76500.00000 0 -21634003.089 -8975893.514 -10121415.009 10 0 59790 77400.00000 0 -22619453.350 -9412089.816 -7134854.300 10 0 59790 78300.00000 0 -23303466.420 -9596173.223 -4009832.461 10 0 59790 79200.00000 0 -23645229.121 -9567695.038 -807005.958 10 0 59790 80100.00000 0 -23614818.711 -9374068.957 2411479.471 10 0 59790 81000.00000 0 -23194537.347 -9068332.663 5583192.690 10 0 59790 81900.00000 0 -22379752.589 -8706682.200 8646625.293 10 0 59790 82800.00000 0 -21179208.650 -8345883.630 11542380.493 10 0 59790 83700.00000 0 -19614795.288 -8040671.465 14214319.961 10 0 59790 84600.00000 0 -17720783.699 -7841243.696 16610646.690 10 0 59790 85500.00000 0 -15542561.001 -7790958.974 18684903.322 10 0 59791 0.00000 0 -13134915.771 -7924332.912 20396867.049 10 0 59791 900.00000 0 -10559943.963 -8265417.953 21713325.307 10 0 59791 1800.00000 0 -7884664.811 -8826634.870 22608715.584 10 0 59791 2700.00000 0 -5178440.414 -9608105.683 23065620.637 10 0 59791 3600.00000 0 -2510308.233 -10597516.486 23075107.507 10 0 59791 4500.00000 0 53665.128 -11770516.988 22636904.849 10 0 59791 5400.00000 0 2452899.972 -13091641.208 21759414.826 10 0 59791 6300.00000 0 4634585.989 -14515712.144 20459558.814 10 0 59791 7200.00000 0 6555637.090 -15989672.964 18762459.161 10 0 59791 8100.00000 0 8184238.037 -17454769.295 16700962.204 10 0 59791 9000.00000 0 9500918.956 -18848992.256 14315010.668 10 0 59791 9900.00000 0 10499113.204 -20109680.439 11650876.653 10 0 59791 10800.00000 0 11185175.591 -21176171.959 8760269.122 10 0 59791 11700.00000 0 11577860.506 -21992394.991 5699332.587 10 0 59791 12600.00000 0 11707282.129 -22509287.234 2527556.180 10 0 59791 13500.00000 0 11613401.074 -22686941.580 -693385.681 10 0 59791 14400.00000 0 11344101.883 -22496386.433 -3900838.094 10 0 59791 15300.00000 0 10952943.336 -21920924.284 -7032391.699 10 0 59791 16200.00000 0 10496677.818 -20956970.991 -10027105.230 10 0 59791 17100.00000 0 10032645.649 -19614359.091 -12826699.780 10 0 59791 18000.00000 0 9616155.852 -17916091.385 -15376700.427 10 0 59791 18900.00000 0 9297965.374 -15897554.560 -17627502.288 10 0 59791 19800.00000 0 9121964.358 -13605225.301 -19535339.617 10 0 59791 20700.00000 0 9123166.154 -11094923.036 -21063138.740 10 0 59791 21600.00000 0 9326087.570 -8429682.377 -22181238.259 10 0 59791 22500.00000 0 9743588.100 -5677334.075 -22867962.772 10 0 59791 23400.00000 0 10376217.213 -2907895.552 -23110039.366 10 0 59791 24300.00000 0 11212097.228 -190879.530 -22902849.442 10 0 59791 25200.00000 0 12227346.598 2407367.508 -22250511.579 10 0 59791 26100.00000 0 13387025.645 4826186.850 -21165794.433 10 0 59791 27000.00000 0 14646564.847 7012885.046 -19669861.884 10 0 59791 27900.00000 0 15953615.557 8924673.798 -17791855.765 10 0 59791 28800.00000 0 17250245.298 10530192.756 -15568324.529 10 0 59791 29700.00000 0 18475385.414 11810553.423 -13042509.141 10 0 59791 30600.00000 0 19567428.254 12759862.324 -10263500.080 10 0 59791 31500.00000 0 20466864.778 13385203.297 -7285281.931 10 0 59791 32400.00000 0 21118851.807 13706081.482 -4165684.130 10 0 59791 33300.00000 0 21475601.035 13753353.986 -965258.248 10 0 59791 34200.00000 0 21498489.426 13567693.584 2253896.266 10 0 59791 35100.00000 0 21159802.280 13197651.375 5429335.063 10 0 59791 36000.00000 0 20444035.659 12697400.900 8499477.270 10 0 59791 36900.00000 0 19348703.364 12124259.440 11404795.798 10 0 59791 37800.00000 0 17884614.318 11536091.333 14088966.724 10 0 59791 38700.00000 0 16075608.338 10988702.885 16499955.791 10 0 59791 39600.00000 0 13957760.782 10533338.535 18591021.347 10 0 59791 40500.00000 0 11578088.574 10214383.529 20321614.923 10 0 59791 41400.00000 0 8992810.582 10067369.552 21658162.641 10 0 59791 42300.00000 0 6265233.800 10117367.014 22574712.916 10 0 59791 43200.00000 0 3463351.979 10377831.566 23053438.520 10 0 59791 44100.00000 0 657255.116 10849953.505 23084983.619 10 0 59791 45000.00000 0 -2083543.878 11522537.863 22668649.231 10 0 59791 45900.00000 0 -4692755.746 12372421.022 21812413.310 10 0 59791 46800.00000 0 -7109825.988 13365407.355 20532784.628 10 0 59791 47700.00000 0 -9282207.152 14457687.736 18854492.495 10 0 59791 48600.00000 0 -11167298.641 15597681.556 16810017.421 10 0 59791 49500.00000 0 -12733973.898 16728225.943 14438970.674 10 0 59791 50400.00000 0 -13963631.530 17789020.966 11787333.781 10 0 59791 51300.00000 0 -14850726.794 18719228.458 8906571.808 10 0 59791 52200.00000 0 -15402761.345 19460115.070 5852636.896 10 0 59791 53100.00000 0 -15639731.853 19957627.807 2684881.203 10 0 59791 54000.00000 0 -15593061.030 20164792.638 -535099.668 10 0 59791 54900.00000 0 -15304056.537 20043833.857 -3744669.856 10 0 59791 55800.00000 0 -14821963.484 19567923.460 -6881378.873 10 0 59791 56700.00000 0 -14201693.638 18722485.316 -9884184.946 10 0 59791 57600.00000 0 -13501328.230 17505997.672 -12694651.254 10 0 59791 58500.00000 0 -12779501.123 15930259.042 -15258090.723 10 0 59791 59400.00000 0 -12092773.936 14020105.120 -17524636.267 10 0 59791 60300.00000 0 -11493115.092 11812587.840 -19450215.084 10 0 59791 61200.00000 0 -11025590.118 9355650.662 -20997407.678 10 0 59791 62100.00000 0 -10726361.132 6706355.062 -22136174.892 10 0 59791 63000.00000 0 -10621080.213 3928732.155 -22844439.046 10 0 59791 63900.00000 0 -10723744.354 1091349.077 -23108508.315 10 0 59791 64800.00000 0 -11036060.011 -1735308.714 -22923336.711 10 0 59791 65700.00000 0 -11547343.621 -4481530.567 -22292615.233 10 0 59791 66600.00000 0 -12234961.771 -7081037.542 -21228693.043 10 0 59791 67500.00000 0 -13065292.050 -9473493.372 -19752330.711 10 0 59791 68400.00000 0 -13995163.665 -11606765.997 -17892290.705 10 0 59791 69300.00000 0 -14973716.861 -13438846.664 -15684773.385 10 0 59791 70200.00000 0 -15944602.621 -14939348.071 -13172709.605 10 0 59791 71100.00000 0 -16848429.859 -16090520.647 -10404923.696 10 0 59791 72000.00000 0 -17625356.988 -16887746.063 -7435183.203 10 0 59791 72900.00000 0 -18217718.653 -17339489.055 -4321153.816 10 0 59791 73800.00000 0 -18572576.992 -17466711.178 -1123279.794 10 0 59791 74700.00000 0 -18644089.921 -17301772.541 2096388.230 10 0 59791 75600.00000 0 -18395596.683 -16886868.995 5275395.325 10 0 59791 76500.00000 0 -17801332.741 -16272071.540 8352090.869 10 0 59791 77400.00000 0 -16847701.711 -15513051.224 11266820.255 10 0 59791 78300.00000 0 -15534050.549 -14668585.784 13963076.753 10 0 59791 79200.00000 0 -13872914.967 -13797953.182 16388591.575 10 0 59791 80100.00000 0 -11889724.163 -12958321.684 18496341.355 10 0 59791 81000.00000 0 -9621976.345 -12202245.984 20245454.166 10 0 59791 81900.00000 0 -7117918.373 -11575374.290 21601997.176 10 0 59791 82800.00000 0 -4434783.384 -11114462.298 22539631.272 10 0 59791 83700.00000 0 -1636658.351 -10845777.108 23040120.570 10 0 59791 84600.00000 0 1207931.318 -10783957.905 23093687.341 10 0 59791 85500.00000 0 4028621.221 -10931381.237 22699205.567 10 0 59792 0.00000 0 6755884.787 -11278057.799 21864229.365 10 0 59792 900.00000 0 9323679.154 -11802065.801 20604854.694 10 0 59792 1800.00000 0 11671947.604 -12470503.001 18945417.528 10 0 59792 2700.00000 0 13748880.351 -13240918.864 16918031.858 10 0 59792 3600.00000 0 15512836.484 -14063167.125 14561976.452 10 0 59792 4500.00000 0 16933848.763 -14881601.659 11922940.861 10 0 59792 5400.00000 0 17994648.377 -15637523.654 9052144.429 10 0 59792 6300.00000 0 18691166.856 -16271777.071 6005344.710 10 0 59792 7200.00000 0 19032494.083 -16727382.601 2841754.280 10 0 59792 8100.00000 0 19040294.327 -16952098.271 -377112.993 10 0 59792 9000.00000 0 18747705.087 -16900797.483 -3588643.451 10 0 59792 9900.00000 0 18197765.650 -16537562.757 -6730348.771 10 0 59792 10800.00000 0 17441442.302 -15837405.277 -9741090.004 10 0 59792 11700.00000 0 16535334.365 -14787536.102 -12562275.723 10 0 59792 12600.00000 0 15539158.905 -13388134.006 -15139009.865 10 0 59792 13500.00000 0 14513121.289 -11652576.254 -17421166.132 10 0 59792 14400.00000 0 13515283.585 -9607121.581 -19364367.437 10 0 59792 15300.00000 0 12599042.599 -7290057.860 -20930850.934 10 0 59792 16200.00000 0 11810824.391 -4750349.590 -22090201.816 10 0 59792 17100.00000 0 11188092.656 -2045841.332 -22819941.842 10 0 59792 18000.00000 0 10757754.701 758908.179 -23105961.538 10 0 59792 18900.00000 0 10535031.741 3595071.196 -22942788.319 10 0 59792 19800.00000 0 10522840.414 6392173.941 -22333685.929 10 0 59792 20700.00000 0 10711710.768 9080788.555 -21290583.896 10 0 59792 21600.00000 0 11080243.284 11595182.711 -19833838.878 10 0 59792 22500.00000 0 11596084.901 13875817.425 -17991832.954 10 0 59792 23400.00000 0 12217382.177 15871590.022 -15800416.936 10 0 59792 24300.00000 0 12894649.763 17541730.023 -13302209.695 10 0 59792 25200.00000 0 13572974.972 18857270.218 -10545767.150 10 0 59792 26100.00000 0 14194465.144 19802032.858 -7584637.163 10 0 59792 27000.00000 0 14700834.369 20373091.251 -4476318.709 10 0 59792 27900.00000 0 15036020.306 20580688.906 -1281145.516 10 0 59792 28800.00000 0 15148720.599 20447620.971 1938883.981 10 0 59792 29700.00000 0 14994741.817 20008105.232 5121307.699 10 0 59792 30600.00000 0 14539061.772 19306191.121 8204408.651 10 0 59792 31500.00000 0 13757518.110 18393774.453 11128407.928 10 0 59792 32400.00000 0 12638051.815 17328301.870 13836618.996 10 0 59792 33300.00000 0 11181452.820 16170261.772 16276541.249 10 0 59792 34200.00000 0 9401575.820 14980567.149 18400872.015 10 0 59792 35100.00000 0 7325016.300 13817940.004 20168417.990 10 0 59792 36000.00000 0 4990259.199 12736406.715 21544889.123 10 0 59792 36900.00000 0 2446334.455 11783008.898 22503560.130 10 0 59792 37800.00000 0 -248966.039 10995825.183 23025787.453 10 0 59792 38700.00000 0 -3031237.553 10402386.322 23101372.014 10 0 59792 39600.00000 0 -5831889.895 10018549.714 22728760.865 10 0 59792 40500.00000 0 -8580753.886 9847880.379 21915083.724 10 0 59792 41400.00000 0 -11208760.136 9881564.415 20676023.184 10 0 59792 42300.00000 0 -13650580.010 10098858.896 19035520.420 10 0 59792 43200.00000 0 -15847119.999 10468059.782 17025321.123 10 0 59792 44100.00000 0 -17747766.374 10947947.741 14684369.404 10 0 59792 45000.00000 0 -19312286.833 11489651.550 12058060.373 10 0 59792 45900.00000 0 -20512309.936 12038850.979 9197364.988 10 0 59792 46800.00000 0 -21332320.361 12538226.354 6157843.439 10 0 59792 47700.00000 0 -21770128.095 12930051.207 2998565.912 10 0 59792 48600.00000 0 -21836791.705 13158817.861 -219038.251 10 0 59792 49500.00000 0 -21555998.991 13173784.029 -3432380.344 10 0 59792 50400.00000 0 -20962931.204 12931331.540 -6578936.904 10 0 59792 51300.00000 0 -20102659.096 12397035.983 -9597474.433 10 0 59792 52200.00000 0 -19028139.085 11547358.276 -12429249.420 10 0 59792 53100.00000 0 -17797894.779 10370885.162 -15019159.197 10 0 59792 54000.00000 0 -16473482.560 8869064.875 -17316820.432 10 0 59792 54900.00000 0 -15116848.996 7056405.714 -19277553.667 10 0 59792 55800.00000 0 -13787692.153 4960128.176 -20863254.330 10 0 59792 56700.00000 0 -12540938.487 2619284.412 -22043133.258 10 0 59792 57600.00000 0 -11424441.620 83381.180 -22794312.586 10 0 59792 58500.00000 0 -10476999.711 -2589436.540 -23102265.761 10 0 59792 59400.00000 0 -9726774.281 -5334565.864 -22961093.815 10 0 59792 60300.00000 0 -9190176.141 -8083399.774 -22373633.092 10 0 59792 61200.00000 0 -8871264.264 -10765952.457 -21351392.976 10 0 59792 62100.00000 0 -8761681.684 -13313547.461 -19914325.380 10 0 59792 63000.00000 0 -8841129.943 -15661457.451 -18090430.839 10 0 59792 63900.00000 0 -9078360.947 -17751386.314 -15915209.190 10 0 59792 64800.00000 0 -9432643.450 -19533691.197 -13430965.673 10 0 59792 65700.00000 0 -9855641.485 -20969252.866 -10685985.969 10 0 59792 66600.00000 0 -10293624.831 -22030917.408 -7733596.318 10 0 59792 67500.00000 0 -10689917.737 -22704450.292 -4631126.950 10 0 59792 68400.00000 0 -10987482.159 -22988964.090 -1438798.975 10 0 59792 69300.00000 0 -11131526.180 -22896803.151 1781443.526 10 0 59792 70200.00000 0 -11072027.298 -22452891.198 4967133.541 10 0 59792 71100.00000 0 -10766063.904 -21693570.242 8056490.022 10 0 59792 72000.00000 0 -10179856.422 -20664980.300 10989612.147 10 0 59792 72900.00000 0 -9290431.802 -19421048.572 13709636.006 10 0 59792 73800.00000 0 -8086840.856 -18021172.737 16163831.619 10 0 59792 74700.00000 0 -6570876.718 -16527695.635 18304619.379 10 0 59792 75600.00000 0 -4757263.392 -15003277.022 20090486.848 10 0 59792 76500.00000 0 -2673305.413 -13508272.058 21486788.800 10 0 59792 77400.00000 0 -358011.983 -12098225.743 22466415.580 10 0 59792 78300.00000 0 2139269.424 -10821587.469 23010317.461 10 0 59792 79200.00000 0 4760654.738 -9717740.571 23107875.220 10 0 59792 80100.00000 0 7441886.972 -8815428.735 22757109.874 10 0 59792 81000.00000 0 10114773.643 -8131644.568 21964727.422 10 0 59792 81900.00000 0 12709798.259 -7671026.574 20745997.225 10 0 59792 82800.00000 0 15158798.595 -7425789.712 19124465.699 10 0 59792 83700.00000 0 17397601.444 -7376192.539 17131509.904 10 0 59792 84600.00000 0 19368504.947 -7491521.520 14805738.598 10 0 59792 85500.00000 0 21022505.274 -7731551.418 12192251.387 99